COMPACT


Domain .nu was replaced with .st. Please update your bookmarks.

Category Catalogue Title Size Date
Scene HD 1080p Anilos Anilos 17 11 29 Kimberlee Cline Adult Toy Talk XXX 1080p MP4-KTR 1.4 GB29.11.2017
Scene HD 1080p Anilos Anilos 17 11 28 Kirsten Klark Hot Mom XXX 1080p MP4-KTR 450 MB28.11.2017
Scene HD 1080p Anilos Anilos 17 11 25 Kirsten Klark Busty Babe XXX 1080p MP4-KTR 687 MB25.11.2017
Scene HD 1080p Anilos Anilos 17 11 24 Kirsten Klark Blonde Beauty XXX 1080p MP4-KTR 431 MB24.11.2017
Scene HD 1080p Anilos Anilos 17 11 21 Kirsten Klark Hardcore XXX 1080p MP4-KTR 1.4 GB21.11.2017
Scene HD 1080p Anilos Anilos 17 11 20 Nicole Vice Sexy Blonde XXX 1080p MP4-KTR 724 MB20.11.2017
Scene HD 1080p Anilos Anilos 17 11 19 Nicole Vice Red Hot MILF XXX 1080p MP4-KTR 582 MB19.11.2017
Scene HD 1080p Anilos Anilos 17 11 16 Nicole Vice Naughty Dress Up XXX 1080p MP4-KTR 983 MB16.11.2017
Scene HD 1080p Anilos Anilos 17 11 15 Nicole Vice Dildo Play XXX 1080p MP4-KTR 654 MB15.11.2017
Scene HD 1080p Anilos Anilos 17 11 14 Roxana Hanova Temptress XXX 1080p MP4-KTR 607 MB14.11.2017
Scene HD 1080p Anilos Anilos 17 11 11 Roxana Hanova Summer Heat XXX 1080p MP4-KTR 786 MB11.11.2017
Scene HD 1080p Anilos Anilos 17 11 10 Roxana Hanova Blonde Natural Tits XXX 1080p MP4-KTR 639 MB10.11.2017
Scene HD 1080p Anilos Anilos 17 11 07 Roxana Hanova Blonde Bombshell XXX 1080p MP4-KTR 801 MB07.11.2017
Scene HD 1080p Anilos Anilos 17 11 06 Niki What A Woman XXX 1080p MP4-KTR 623 MB06.11.2017
Scene HD 1080p Anilos Anilos 17 11 05 Niki Naughty Niki XXX 1080p MP4-KTR 633 MB05.11.2017
Scene HD 1080p Anilos Anilos 17 11 02 Niki First Timer XXX 1080p MP4-KTR 551 MB02.11.2017
Scene HD 1080p Anilos Anilos 17 11 01 Niki American MILF XXX 1080p MP4-KTR 652 MB01.11.2017
Scene HD 1080p Anilos Anilos 17 11 01 Monika Wanting More XXX 1080p MP4-KTR 1.9 GB01.11.2017
Scene HD 1080p Anilos Anilos 17 10 31 Monika Shower Play XXX 1080p MP4-KTR 2.1 GB31.10.2017
Scene HD 1080p Anilos Anilos 17 10 28 Monika Her Toy Pleasure XXX 1080p MP4-KTR 2.1 GB28.10.2017
Scene HD 1080p Anilos Anilos 17 10 27 Monika Firey Russian XXX 1080p MP4-KTR 2.0 GB27.10.2017
Scene HD 1080p Anilos Anilos 17 10 24 Monika Hardcore XXX 1080p MP4-KTR 1.3 GB25.10.2017
Scene HD 1080p Anilos Anilos 17 10 23 Cam Angel Massage Oil XXX 1080p MP4-KTR 676 MB23.10.2017
Scene HD 1080p Anilos Anilos 17 10 19 Cam Angel Dripping Wet XXX 1080p MP4-KTR 480 MB19.10.2017
Scene HD 1080p Anilos Anilos 17 10 18 Cam Angel Busty Blonde XXX 1080p MP4-KTR 552 MB18.10.2017
Scene HD 1080p Anilos Anilos 17 10 17 Leilani Lei Two Toys XXX 1080p MP4-KTR 652 MB17.10.2017
Scene HD 1080p Anilos Anilos 17 10 14 Leilani Lei Silver Fox XXX 1080p MP4-KTR 890 MB14.10.2017
Scene HD 1080p Anilos Anilos 17 10 13 Leilani Lei Sex Appeal XXX 1080p MP4-KTR 509 MB13.10.2017
Scene HD 1080p Anilos Anilos 17 10 10 Leilani Lei Florida Babe XXX 1080p MP4-KTR 557 MB10.10.2017
Scene HD 1080p Anilos Anilos 17 10 09 Sasha Jess Sexy Sash XXX 1080p MP4-KTR 2.1 GB09.10.2017
Scene HD 1080p Anilos Anilos 17 10 08 Sasha Jess Orgasm XXX 1080p MP4-KTR 1.8 GB08.10.2017
Scene HD 1080p Anilos Anilos 17 10 05 Sasha Jess Horny Blonde XXX 1080p MP4-KTR 1.9 GB05.10.2017
Scene HD 1080p Anilos Anilos 17 10 05 Cherry Despina What She Likes XXX 1080p MP4-KTR 1.2 GB05.10.2017
Scene HD 1080p Anilos Anilos 17 10 04 Sasha Jess Amateur Russian XXX 1080p MP4-KTR 1.7 GB05.10.2017
Scene HD 1080p Anilos Anilos 17 10 03 Cherry Despina Touch Me XXX 1080p MP4-KTR 979 MB03.10.2017
Scene HD 1080p Anilos Anilos 17 10 01 Cherry Despina Pleasing The Pussy XXX 1080p MP4-KTR 1.4 GB01.10.2017
Scene HD 1080p Anilos Anilos 17 09 29 Cherry Despina Mature Spinner XXX 1080p MP4-KTR 1.1 GB29.09.2017
Scene HD 1080p Anilos Anilos 17 09 27 Cherry Despina Hardcore XXX 1080p MP4-KTR 2.3 GB27.09.2017
Scene HD 1080p Anilos Anilos 17 09 26 Carmen Valentina Toy With Me XXX 1080p MP4-KTR 553 MB26.09.2017
Scene HD 1080p Anilos Anilos 17 09 24 Carmen Valentina Sexy Fun XXX 1080p MP4-KTR 473 MB24.09.2017
Scene HD 1080p Anilos Anilos 17 09 22 Carmen Valentina Foxy MILF XXX 1080p MP4-KTR 952 MB22.09.2017
Scene HD 1080p Anilos Anilos 17 09 20 Carmen Valentina Bombshell Babe XXX 1080p MP4-KTR 522 MB20.09.2017
Scene HD 1080p Anilos Anilos 17 09 18 Ellen B Dressed Up XXX 1080p MP4-KTR 1.1 GB18.09.2017
Scene HD 1080p Anilos Anilos 17 09 17 Ellen B Naughty Fun XXX 1080p MP4-KTR 1.2 GB17.09.2017
Scene HD 1080p Anilos Anilos 17 09 14 Ellen B Mature Babe XXX 1080p MP4-KTR 823 MB14.09.2017
Scene HD 1080p Anilos Anilos 17 09 13 Ellen B Hairy Pussy XXX 1080p MP4-KTR 1.2 GB13.09.2017
Scene HD 1080p Anilos Anilos 17 09 12 Jessica Spielberg Toy Tease XXX 1080p MP4-KTR 684 MB12.09.2017
Scene HD 1080p Anilos Anilos 17 09 09 Jessica Spielberg Totally Exposed XXX 1080p MP4-KTR 475 MB09.09.2017
Scene HD 1080p Anilos Anilos 17 09 08 Jessica Spielberg Russian MILF XXX 1080p MP4-KTR 526 MB08.09.2017
Scene HD 1080p Anilos Anilos 17 09 05 Jessica Spielberg Dildo Play XXX 1080p MP4-KTR 587 MB08.09.2017
Scene HD 1080p Anilos Anilos 17 09 07 Marel Dew Turn Me On XXX 1080p MP4-KTR 1.1 GB07.09.2017
Scene HD 1080p Anilos Anilos 17 09 04 Marel Dew Stunning Russian MILF XXX 1080p MP4-KTR 1.3 GB04.09.2017
Scene HD 1080p Anilos Anilos 17 09 03 Marel Dew Garter Belt XXX 1080p MP4-KTR 1.2 GB03.09.2017
Scene HD 1080p Anilos Anilos 17 08 31 Marel Dew Boudoir XXX 1080p MP4-KTR 1.3 GB31.08.2017
Scene HD 1080p Anilos Anilos 17 08 30 Marel Dew Hardcore XXX 1080p MP4-KTR 2.8 GB30.08.2017
Scene HD 1080p Anilos Anilos 17 08 29 Solena Toys And Tits XXX 1080p MP4-KTR 2.0 GB29.08.2017
Scene HD 1080p Anilos Anilos 17 08 26 Solena Sexy Solena XXX 1080p MP4-KTR 1.8 GB27.08.2017
Scene HD 1080p Anilos Anilos 17 08 26 Solena Sexy Solena XXX 1080p MP4-KTR 1.8 GB26.08.2017
Scene HD 1080p Anilos Anilos 17 08 25 Solena Orgasm XXX 1080p MP4-KTR 1.7 GB25.08.2017
Scene HD 1080p Anilos Anilos 17 08 22 Solena Knee Highs XXX 1080p MP4-KTR 1.9 GB22.08.2017
Scene HD 1080p Anilos Anilos 17 08 21 Annie M Touch And Tease XXX 1080p MP4-KTR 1.4 GB21.08.2017
Scene HD 1080p Anilos Anilos 17 08 20 Annie M Playtime XXX 1080p MP4-KTR 1.4 GB20.08.2017
Scene HD 1080p Anilos Anilos 17 08 17 Annie M Natural Redhead XXX 1080p MP4-KTR 1.1 GB20.08.2017
Scene HD 1080p Anilos Anilos 17 08 16 Annie M Classic Beauty XXX 1080p MP4-KTR 1.5 GB16.08.2017
Scene HD 1080p Anilos Anilos 17 08 15 Alice Wonderland White Lace XXX 1080p MP4-KTR 1.8 GB15.08.2017
Scene HD 1080p Anilos Anilos 17 08 12 Alice Wonderland Red Head MILF XXX 1080p MP4-KTR 2.1 GB12.08.2017
Scene HD 1080p Anilos Anilos 17 08 11 Alice Wonderland Hot Mama XXX 1080p MP4-KTR 1.8 GB11.08.2017
Scene HD 1080p Anilos Anilos 17 08 08 Alice Wonderland Great Rack XXX 1080p MP4-KTR 2.1 GB11.08.2017
Scene HD 1080p Anilos Anilos 17 08 10 Velvet Skye Only The Best XXX 1080p MP4-KTR 590 MB10.08.2017
Scene HD 1080p Anilos Anilos 17 08 03 Velvet Skye Back For More XXX 1080p MP4-KTR 939 MB03.08.2017
Scene HD 1080p Anilos Anilos 17 08 02 Velvet Skye Hardcore XXX 1080p MP4-KTR 3.1 GB02.08.2017
Scene HD 1080p Anilos Anilos 17 08 01 Ksukotzol Toy Ride XXX 1080p MP4-KTR 1.2 GB01.08.2017
Scene HD 1080p Anilos Anilos 17 07 29 Ksukotzol Sexy Mama XXX 1080p MP4-KTR 1.6 GB29.07.2017
Scene HD 1080p Anilos Anilos 17 07 28 Ksukotzol Perfect Pair XXX 1080p MP4-KTR 1.4 GB28.07.2017
Scene HD 1080p Anilos Anilos 17 07 25 Ksukotzol Hot Pink XXX 1080p MP4-KTR 1.4 GB25.07.2017
Scene HD 1080p Anilos Anilos 17 07 24 Liya Lucky Smother Me XXX 1080p MP4-KTR 1.5 GB24.07.2017
Scene HD 1080p Anilos Anilos 17 07 23 Liya Lucky Showing Off Her Pussy XXX 1080p MP4-KTR 1.4 GB23.07.2017
Scene HD 1080p Anilos Anilos 17 07 20 Liya Lucky Nice Rack XXX 1080p MP4-KTR 1.4 GB20.07.2017
Scene HD 1080p Anilos Anilos 17 07 19 Liya Lucky Curvy Russia Beauty XXX 1080p MP4-KTR 828 MB19.07.2017
Scene HD 1080p Anilos Anilos 17 07 18 Alice Wonder Pussy Play XXX 1080p MP4-KTR 2.0 GB18.07.2017
Scene HD 1080p Anilos Anilos 17 07 16 Alice Wonder Pin Up Looks XXX 1080p MP4-KTR 2.0 GB16.07.2017
Scene HD 1080p Anilos Anilos 17 07 14 Alice Wonder Hot Housewife XXX 1080p MP4-KTR 2.1 GB14.07.2017
Scene HD 1080p Anilos Anilos 17 07 13 Di Devi Pleasing Di Devi XXX 1080p MP4-KTR 522 MB13.07.2017
Scene HD 720p Anilos Anilos 17 07 12 Alice Wonder Classic Beauty XXX 720p MP4-KTR 858 MB13.07.2017
Scene HD 1080p Anilos Anilos 17 07 11 Di Devi MILF Spreads Pussy Wide XXX 1080p MP4-KTR 881 MB11.07.2017
Scene HD 1080p Anilos Anilos 17 07 09 Di Devi Her Favorite Toy XXX 1080p MP4-KTR 875 MB09.07.2017
Scene HD 1080p Anilos Anilos 17 07 07 Di Devi Foreign Beauty XXX 1080p MP4-KTR 897 MB07.07.2017
Scene HD 1080p Anilos Anilos 17 07 05 Di Devi Hardcore XXX 1080p MP4-KTR 979 MB05.07.2017
Scene HD 1080p Anilos Anilos 17 07 04 Princess Mustang Teasing The Clit XXX 1080p MP4-KTR 1.8 GB04.07.2017
Scene HD 1080p Anilos Anilos 17 07 01 Princess Mustang Mature Spinner XXX 1080p MP4-KTR 1.3 GB01.07.2017
Scene HD 1080p Anilos Anilos 17 06 30 Princess Mustang Hairy Pussy XXX 1080p MP4-KTR 1.7 GB30.06.2017
Scene HD 1080p Anilos Anilos 17 06 27 Princess Mustang All Natural XXX 1080p MP4-KTR 1.6 GB27.06.2017
Scene HD 1080p Anilos Anilos 17 06 25 Jamie Foster Spread And Tease XXX 1080p MP4-KTR 1.6 GB25.06.2017
Scene HD 1080p Anilos Anilos 17 06 22 Jamie Foster Little Black Dress XXX 1080p MP4-KTR 1.1 GB22.06.2017
Scene HD 1080p Anilos Anilos 17 06 21 Jamie Foster Foxy Mature XXX 1080p MP4-KTR 1.2 GB21.06.2017
Scene HD 1080p Anilos Anilos 17 06 17 Eva Green MILF Shows Off XXX 1080p MP4-KTR 1.7 GB17.06.2017
Scene HD 1080p Anilos Anilos 17 06 15 Affina Kisser Toy Pleasure XXX 1080p MP4-KTR 976 MB15.06.2017
Scene HD 1080p Anilos Anilos 17 06 13 Eva Green Great Rack XXX 1080p MP4-KTR 1.9 GB13.06.2017
Scene HD 1080p Anilos Anilos 17 06 12 Affina Kisser Sexy Lingerie XXX 1080p MP4-KTR 711 MB12.06.2017
Scene HD 1080p Anilos Anilos 17 06 11 Affina Kisser Russian MILF XXX 1080p MP4-KTR 818 MB11.06.2017